This demonstration page uses our WeatherBlox Daily Observations layout. Learn more.

Left ArrowRight Arrow

39.01783, -85.05884

Hourly Observations for September 18, 2021

Temp ( °F °C ) Dew Point ( °F °C ) Humidity (%) Winds ( mph kmh ) Pressure ( in mb ) Visibility ( mi km ) Precip ( " mm )
12:52 am 00:52 Clear 71 21.7 66 18.9 84 84 W 3 6 30.10 1019 10 16 N/A
1:52 am 01:52 Clear 70 21.1 66 18.9 87 87 N N/A 30.10 1019 10 16 N/A
2:52 am 02:52 Clear 69 20.6 66 18.9 90 90 N N/A 30.10 1019 10 16 N/A
3:52 am 03:52 Clear 68 20 65 18.3 90 90 S 3 6 30.10 1019 10 16 N/A
4:52 am 04:52 Partly Cloudy 68 20 66 18.9 93 93 N N/A 30.11 1020 9 14 N/A
5:52 am 05:52 Partly Cloudy 68 20 65 18.3 90 90 S 3 6 30.11 1020 10 16 N/A
6:52 am 06:52 Clear 67 19.4 65 18.3 93 93 SW 3 6 30.12 1020 8 13 N/A
7:52 am 07:52 Partly Cloudy with Mist and Fog 66 18.9 64 17.8 93 93 N N/A 30.13 1020 3 5 N/A
8:52 am 08:52 Mostly Sunny 73 22.8 67 19.4 81 81 N N/A 30.14 1021 10 16 N/A
9:52 am 09:52 Mostly Sunny 79 26.1 67 19.4 67 67 N N/A 30.14 1021 10 16 N/A
10:52 am 10:52 Partly Cloudy 81 27.2 67 19.4 62 62 E 3 6 30.14 1021 10 16 N/A
11:52 am 11:52 Partly Cloudy 85 29.4 66 18.9 53 53 ENE 6 9 30.14 1021 10 16 N/A
12:52 pm 12:52 Mostly Cloudy 87 30.6 65 18.3 48 48 ESE 5 7 30.12 1020 10 16 N/A
1:52 pm 13:52 Mostly Cloudy 85 29.4 65 18.3 51 51 SSE 6 9 30.11 1020 10 16 N/A
2:52 pm 14:52 Mostly Cloudy 87 30.6 63 17.2 45 45 N N/A 30.09 1019 10 16 N/A
3:52 pm 15:52 Mostly Cloudy 88 31.1 62 16.7 42 42 SSE 5 7 30.07 1018 10 16 N/A
4:52 pm 16:52 Mostly Cloudy 88 31.1 62 16.7 42 42 N 5 7 30.06 1018 10 16 N/A
5:52 pm 17:52 Cloudy 84 28.9 63 17.2 49 49 SE 9 15 30.06 1018 10 16 N/A
6:52 pm 18:52 Mostly Cloudy 82 27.8 65 18.3 56 56 S 3 6 30.06 1018 10 16 N/A
7:52 pm 19:52 Mostly Cloudy 80 26.7 64 17.8 58 58 SSW 3 6 30.06 1018 10 16 N/A
8:52 pm 20:52 Cloudy 77 25 65 18.3 66 66 S 3 6 30.08 1019 10 16 N/A
9:52 pm 21:52 Mostly Cloudy 77 25 65 18.3 66 66 NNW 7 11 30.09 1019 10 16 N/A
10:52 pm 22:52 Cloudy 78 25.6 65 18.3 64 64 N N/A 30.09 1019 10 16 N/A
11:52 pm 23:52 Partly Cloudy 73 22.8 65 18.3 76 76 N N/A 30.10 1019 10 16 N/A

Powered by AerisWeather